, TX

(GMT )
Brazos 451

Weather History for KBQX - February, 2014

Change the Weather History Date:

Wednesday, February 5, 2014

  Actual Average Record
Temperature  
Mean Temperature 50 °F -  
Max Temperature 53 °F - - ()
Min Temperature 46 °F - - ()
Degree Days  
Heating Degree Days 16    
Moisture  
Dew Point 42 °F    
Average Humidity 73    
Maximum Humidity 88    
Minimum Humidity 58    
Precipitation  
Precipitation 0.00 in - - ()
Sea Level Pressure  
Sea Level Pressure 30.22 in    
Wind  
Wind Speed 21 mph (NE)    
Max Wind Speed 34 mph    
Max Gust Speed 40 mph    
Visibility 10 miles    
Events      
T = Trace of Precipitation, MM = Missing Value Source: NWS Daily Summary

Daily Weather History Graph

Daily Weather History Graph

Search for Another Location

Airport or City:

Trip Planner

Search our weather history database for the weather conditions in past years. The results will help you decide how hot, cold, wet, or windy it might be!

Date:

Astronomy

Feb. 05, 2014 Rise Set
Actual Time 7:08 AM CST 6:05 PM CST
Civil Twilight 6:43 AM CST 6:30 PM CST
Nautical Twilight 6:15 AM CST 6:58 PM CST
Astronomical Twilight 5:48 AM CST 7:26 PM CST
Moon 10:58 AM CST (2/5) No Moon Set
Length of Visible Light 11h 46m
Length of Day
10h 57m
Waxing Crescent, 39% of the Moon is Illuminated
Feb 5
Waxing Crescent
Feb 6
First Quarter
Feb 14
Full
Feb 22
Last Quarter
Mar 1
New

Hourly Weather History & Observations

Time (CST) Temp. Windchill Dew Point Humidity Pressure Visibility Wind Dir Wind Speed Gust Speed Precip Events Conditions
12:15 AM 51.8 °F - 48.2 °F 88% 30.06 in 10.0 mi ENE 15.0 mph - N/A   Partly Cloudy
12:35 AM 51.8 °F - 48.2 °F 88% 30.06 in 10.0 mi NE 13.8 mph - N/A   Partly Cloudy
12:55 AM 51.8 °F - 48.2 °F 88% 30.06 in 10.0 mi NE 17.3 mph 23.0 mph N/A   Clear
1:15 AM 51.8 °F - 48.2 °F 88% 30.06 in 10.0 mi NE 15.0 mph - N/A   Clear
1:35 AM 53.6 °F - 48.2 °F 82% 30.06 in 10.0 mi ENE 12.7 mph 19.6 mph N/A   Clear
1:55 AM 53.6 °F - 48.2 °F 82% 30.07 in 10.0 mi ENE 16.1 mph 23.0 mph N/A   Clear
2:15 AM 51.8 °F - 48.2 °F 88% 30.07 in 10.0 mi ENE 17.3 mph - N/A   Clear
2:35 AM 51.8 °F - 48.2 °F 88% 30.08 in 10.0 mi ENE 17.3 mph - N/A   Clear
2:55 AM 51.8 °F - 48.2 °F 88% 30.08 in 10.0 mi ENE 16.1 mph 23.0 mph N/A   Clear
3:15 AM 51.8 °F - 48.2 °F 88% 30.08 in 10.0 mi ENE 17.3 mph - N/A   Clear
3:35 AM 51.8 °F - 46.4 °F 82% 30.09 in 10.0 mi ENE 18.4 mph - N/A   Clear
3:55 AM 51.8 °F - 46.4 °F 82% 30.09 in 10.0 mi NE 16.1 mph - N/A   Clear
4:15 AM 51.8 °F - 48.2 °F 88% 30.10 in 10.0 mi NE 17.3 mph 24.2 mph N/A   Partly Cloudy
4:35 AM 51.8 °F - 48.2 °F 88% 30.10 in 10.0 mi ENE 17.3 mph - N/A   Clear
4:55 AM 51.8 °F - 48.2 °F 88% 30.13 in 10.0 mi ENE 16.1 mph 21.9 mph N/A   Clear
5:15 AM 51.8 °F - 46.4 °F 82% 30.15 in 10.0 mi NE 12.7 mph 19.6 mph N/A   Clear
5:35 AM 51.8 °F - 46.4 °F 82% 30.16 in 10.0 mi NE 19.6 mph - N/A   Clear
5:55 AM 51.8 °F - 46.4 °F 82% 30.17 in 10.0 mi NE 18.4 mph 27.6 mph N/A   Clear
6:15 AM 51.8 °F - 46.4 °F 82% 30.18 in 10.0 mi NNE 25.3 mph - N/A   Clear
6:35 AM 51.8 °F - 46.4 °F 82% 30.20 in 10.0 mi NNE 24.2 mph - N/A   Clear
6:55 AM 51.8 °F - 44.6 °F 76% 30.20 in 10.0 mi NNE 29.9 mph - N/A   Clear
7:15 AM 51.8 °F - 44.6 °F 76% 30.20 in 8.0 mi NNE 31.1 mph - N/A   Partly Cloudy
7:35 AM 50.0 °F - 44.6 °F 82% 30.23 in 9.0 mi NNE 29.9 mph 35.7 mph N/A   Partly Cloudy
7:55 AM 50.0 °F - 42.8 °F 76% 30.24 in 8.0 mi NNE 29.9 mph 35.7 mph N/A   Scattered Clouds
8:15 AM 50.0 °F - 42.8 °F 76% 30.25 in 10.0 mi NNE 31.1 mph 38.0 mph N/A   Mostly Cloudy
8:35 AM 48.2 °F - 42.8 °F 82% 30.26 in 10.0 mi NNE 33.4 mph - N/A   Mostly Cloudy
8:55 AM 48.2 °F - 42.8 °F 82% 30.27 in 9.0 mi NNE 32.2 mph - N/A   Mostly Cloudy
9:15 AM 48.2 °F - 42.8 °F 82% 30.28 in 9.0 mi NNE 31.1 mph - N/A   Mostly Cloudy
9:35 AM 48.2 °F - 41.0 °F 76% 30.28 in 9.0 mi NNE 34.5 mph - N/A   Overcast
9:55 AM 48.2 °F - 41.0 °F 76% 30.29 in 9.0 mi NNE 33.4 mph - N/A   Overcast
10:15 AM 48.2 °F - 41.0 °F 76% 30.29 in 9.0 mi NNE 32.2 mph 38.0 mph N/A   Overcast
10:35 AM 46.4 °F 36.9 °F 41.0 °F 81% 30.29 in 9.0 mi NNE 32.2 mph - N/A   Mostly Cloudy
10:55 AM 46.4 °F 36.5 °F 39.2 °F 76% 30.29 in 10.0 mi NNE 34.5 mph - N/A   Mostly Cloudy
11:15 AM 48.2 °F - 39.2 °F 71% 30.29 in 10.0 mi NNE 31.1 mph - N/A   Scattered Clouds
11:35 AM 48.2 °F - 39.2 °F 71% 30.29 in 10.0 mi NNE 31.1 mph 36.8 mph N/A   Scattered Clouds
11:55 AM 48.2 °F - 39.2 °F 71% 30.28 in 10.0 mi NNE 28.8 mph - N/A   Partly Cloudy
12:15 PM 48.2 °F - 39.2 °F 71% 30.27 in 10.0 mi NNE 26.5 mph 34.5 mph N/A   Scattered Clouds
12:35 PM 48.2 °F - 39.2 °F 71% 30.27 in 10.0 mi NNE 26.5 mph - N/A   Partly Cloudy
12:55 PM 48.2 °F - 39.2 °F 71% 30.26 in 10.0 mi NNE 23.0 mph 29.9 mph N/A   Partly Cloudy
1:15 PM 48.2 °F - 39.2 °F 71% 30.26 in 10.0 mi NNE 21.9 mph - N/A   Partly Cloudy
1:35 PM 48.2 °F - 39.2 °F 71% 30.25 in 10.0 mi NNE 24.2 mph - N/A   Clear
1:55 PM 50.0 °F - 39.2 °F 66% 30.24 in 10.0 mi NNE 25.3 mph - N/A   Clear
2:15 PM 50.0 °F - 37.4 °F 62% 30.23 in 10.0 mi NNE 23.0 mph 28.8 mph N/A   Clear
2:35 PM 50.0 °F - 39.2 °F 66% 30.23 in 10.0 mi NNE 21.9 mph - N/A   Clear
2:55 PM 50.0 °F - 39.2 °F 66% 30.21 in 10.0 mi NNE 26.5 mph - N/A   Clear
3:15 PM 50.0 °F - 37.4 °F 62% 30.23 in 10.0 mi NNE 25.3 mph - N/A   Clear
3:35 PM 50.0 °F - 37.4 °F 62% 30.23 in 10.0 mi NNE 20.7 mph 28.8 mph N/A   Clear
3:55 PM 50.0 °F - 37.4 °F 62% 30.25 in 10.0 mi NNE 18.4 mph 25.3 mph N/A   Clear
4:15 PM 51.8 °F - 37.4 °F 58% 30.25 in 10.0 mi NNE 18.4 mph - N/A   Partly Cloudy
4:35 PM 50.0 °F - 37.4 °F 62% 30.25 in 10.0 mi NE 20.7 mph - N/A   Scattered Clouds
4:55 PM 51.8 °F - 37.4 °F 58% 30.24 in 10.0 mi NE 18.4 mph 27.6 mph N/A   Scattered Clouds
5:15 PM 50.0 °F - 37.4 °F 62% 30.24 in 10.0 mi NE 16.1 mph 31.1 mph N/A   Mostly Cloudy
5:35 PM 50.0 °F - 37.4 °F 62% 30.25 in 10.0 mi NE 18.4 mph 28.8 mph N/A   Mostly Cloudy
5:55 PM 50.0 °F - 37.4 °F 62% 30.25 in 10.0 mi NE 13.8 mph 25.3 mph N/A   Overcast
6:15 PM 51.8 °F - 39.2 °F 62% 30.25 in 10.0 mi NE 17.3 mph 25.3 mph N/A   Overcast
6:35 PM 51.8 °F - 37.4 °F 58% 30.25 in 10.0 mi NE 21.9 mph - N/A   Overcast
6:55 PM 51.8 °F - 37.4 °F 58% 30.26 in 10.0 mi NE 16.1 mph 26.5 mph N/A   Overcast
7:15 PM 51.8 °F - 37.4 °F 58% 30.27 in 10.0 mi NE 21.9 mph - N/A   Overcast
7:35 PM 51.8 °F - 37.4 °F 58% 30.27 in 10.0 mi NE 19.6 mph 29.9 mph N/A   Overcast
7:55 PM 51.8 °F - 37.4 °F 58% 30.27 in 10.0 mi NNE 24.2 mph 31.1 mph N/A   Overcast
8:15 PM 50.0 °F - 37.4 °F 62% 30.29 in 10.0 mi NNE 23.0 mph 32.2 mph N/A   Overcast
8:35 PM 50.0 °F - 37.4 °F 62% 30.29 in 10.0 mi NNE 26.5 mph - N/A   Overcast
8:55 PM 50.0 °F - 37.4 °F 62% 30.29 in 10.0 mi NNE 25.3 mph - N/A   Overcast
9:15 PM 50.0 °F - 37.4 °F 62% 30.30 in 10.0 mi NNE 26.5 mph 33.4 mph N/A   Overcast
9:35 PM 48.2 °F - 37.4 °F 66% 30.30 in 10.0 mi NNE 28.8 mph 35.7 mph N/A   Overcast
9:55 PM 48.2 °F - 39.2 °F 71% 30.31 in 10.0 mi NNE 28.8 mph - N/A   Overcast
10:15 PM 48.2 °F - 37.4 °F 66% 30.31 in 10.0 mi NNE 27.6 mph 34.5 mph N/A   Overcast
10:35 PM 46.4 °F 37.2 °F 37.4 °F 71% 30.32 in 10.0 mi NNE 29.9 mph - N/A   Overcast
10:55 PM 48.2 °F - 39.2 °F 71% 30.32 in 10.0 mi NNE 29.9 mph 36.8 mph N/A   Overcast
11:15 PM 48.2 °F - 39.2 °F 71% 30.32 in 10.0 mi NE 23.0 mph 40.3 mph N/A   Overcast
11:35 PM 46.4 °F 37.4 °F 37.4 °F 71% 30.31 in 10.0 mi NNE 28.8 mph 38.0 mph N/A   Overcast
11:55 PM 46.4 °F 36.7 °F 37.4 °F 71% 30.31 in 10.0 mi NNE 33.4 mph - N/A   Overcast